Regional Weather Roundup
Issued by NWS Grand Forks, ND

Home | Current Version | Previous Version | Graphics & Text | Print | Product List | Glossary On
Versions: 1 2 3 4 5 6 7 8 9 10 11 12 13 14 15 16 17 18 19 20 21 22 23 24 25 26 27 28 29 30 31 32 33 34 35 36 37 38 39 40 41 42 43 44 45 46 47 48 49 50
000
ASUS43 KFGF 211210
RWRFGF
PRAIRIE TO PINES  WEATHER ROUNDUP
NATIONAL WEATHER SERVICE EASTERN NORTH DAKOTA/GRAND FORKS ND
700 AM CDT TUE OCT 21 2014

 **SATELLITE DATA USED TO AUGMENT SKY COVER AT AUTOMATED STATIONS**
 *****  WEATHER ACROSS EASTERN NORTH DAKOTA  *****

CITY           SKY/WX    TMP DP  RH WIND       PRES   REMARKS
GRAND FORKS    CLEAR     38  36  92 SE9       30.03F
6HR MIN TEMP:  38; 6HR MAX TEMP:  43;

GRAND FRKS AFB CLEAR     37  37  99 S8        30.02F
GRAND FRKS NWS   N/A     37 N/A N/A SE15        N/A
DEVILS LAKE    CLEAR     46  36  66 SE14      29.92F
6HR MIN TEMP:  46; 6HR MAX TEMP:  48;

FARGO          CLEAR     44  37  76 SE14      30.04F
WAHPETON ARPT  SUNNY     39  34  81 SE12      30.06F
$$

 ***** WEATHER ACROSS CENTRAL AND WESTERN NORTH DAKOTA  *****

CITY           SKY/WX    TMP DP  RH WIND       PRES   REMARKS
BISMARCK       CLEAR     50  36  58 SE7       29.85F
6HR MIN TEMP:  50; 6HR MAX TEMP:  55;

MINOT          CLEAR     48  35  60 E7        29.82F
6HR MIN TEMP:  43; 6HR MAX TEMP:  52;

JAMESTOWN      CLEAR     46  38  73 SE15      29.95F
6HR MIN TEMP:  43; 6HR MAX TEMP:  47;

MINOT AFB      CLEAR     37  36  95 SE6       29.82F
GARRISON         N/A     44  36  73 E8        29.82F
WILLISTON      CLEAR     44  38  79 CALM      29.76S
6HR MIN TEMP:  37; 6HR MAX TEMP:  57;

DICKINSON      CLEAR     38  34  85 E7        29.77F
6HR MIN TEMP:  38; 6HR MAX TEMP:  50;

HETTINGER      CLEAR     40  36  86 E5        29.80F
6HR MIN TEMP:  38; 6HR MAX TEMP:  49;

$$

 *****  OTHER AIRPORT OBSERVATIONS IN OUR AREA  *****

CITY           SKY/WX    TMP DP  RH WIND       PRES   REMARKS
WALHALLA         N/A     37  37 100 SE10G16   30.00S
GRAFTON AIRPOR FAIR      34  34 100 SE8       30.03S
VALLEY CITY AR FAIR      41  41 100 SE12G17   29.99F
CANDO          FAIR      43  39  87 SE12      29.93S
CAVALIER APRT  FAIR      37  36  93 SE9       30.01F
GWINNER        SUNNY     43  37  81 SE10      30.02S
SHEYENNE NWR     N/A     39  36  90 SE8       29.95
ROLLA          FAIR      39  39 100 S9        29.92F
 ***** THE ABOVE OBSERVATIONS ARE NON NWS ARE NOT QUALITY
       CONTROLLED AND MAY MIS-REPORT RAIN FOR SNOW...
$$

  *****  WEATHER ACROSS NORTHERN MINNESOTA  *****

CITY           SKY/WX    TMP DP  RH WIND       PRES   REMARKS
FLAG ISLAND    CLEAR     41  37  87 SE16      30.11S
WARROAD        CLEAR     37  34  87 SE9       30.11S
ROSEAU         CLEAR     37  34  87 SE8       30.09S
HALLOCK        CLEAR     39  36  87 SE10      30.04S
THF RVR FALLS  CLEAR     36  34  93 SE9       30.07S
6HR MIN TEMP:  36; 6HR MAX TEMP:  37;

BAUDETTE       CLEAR     35  32  88 SE6       30.14S
6HR MIN TEMP:  34; 6HR MAX TEMP:  36;

WASKISH        FAIR      30  30 100 CALM      30.14S
CROOKSTON      CLEAR     39  37  93 SE12      30.06F
STEPHEN NDAWN    N/A     39  37  93 SE12        N/A
GREENBUSH NDAW   N/A     37  36  93 SE9         N/A
$$
  *****  WEATHER ACROSS CENTRAL AND WEST MINNESOTA  *****

CITY           SKY/WX    TMP DP  RH WIND       PRES   REMARKS
FOSSTON        FAIR      37  34  87 SE8       30.08F
BEMIDJI        CLEAR     32  32 100 SE6       30.12S
PARK RAPIDS    CLEAR     35  34  96 SE7       30.12S
6HR MIN TEMP:  33; 6HR MAX TEMP:  38;

ELBOW LAKE     FAIR      42  38  86 SE13      30.09F
6HR MIN TEMP:  40; 6HR MAX TEMP:  45;

WADENA         CLEAR     34  32  93 SE6       30.12S
DETROIT LAKES  CLEAR     39  37  93 SE12      30.10S
MOORHEAD       CLEAR     43  43 100 SE10      30.06F
FERGUS FALLS   CLEAR     43  36  75 SE13      30.10S
MORRIS MN      CLEAR     41  37  87 SE13      30.09F
STAPLES        CLEAR     34  34 100 E3        30.14S
$$
  *****  WEATHER ELSEWHERE ACROSS MINNESOTA  *****

CITY           SKY/WX    TMP DP  RH WIND       PRES   REMARKS
DULUTH         CLOUDY    42  35  76 E10       30.19R
6HR MIN TEMP:  42; 6HR MAX TEMP:  45;

INTRNTL FALLS  CLOUDY    40  34  79 SE6       30.17S
6HR MIN TEMP:  40; 6HR MAX TEMP:  42;

ELY            CLOUDY    37  34  87 SE3       30.21R
CLOQUET        CLOUDY    43  37  81 E5        30.19R
WHEATON        CLEAR     37  34  87 SE10      30.09S
BRAINERD       CLEAR     30  29  96 CALM      30.16R
6HR MIN TEMP:  29; 6HR MAX TEMP:  35;

HIBBING        CLOUDY    41  34  76 SE7       30.19R
6HR MIN TEMP:  37; 6HR MAX TEMP:  44;

ALEXANDRIA     CLEAR     38  36  92 SE8       30.13S
6HR MIN TEMP:  38; 6HR MAX TEMP:  43;

SAINT CLOUD    CLEAR     38  34  85 E3        30.16R
6HR MIN TEMP:  36; 6HR MAX TEMP:  41;

MINNEAPOLIS    CLEAR     40  37  89 NE3       30.17R
6HR MIN TEMP:  38; 6HR MAX TEMP:  43;

$$

  *****  WEATHER ACROSS SOUTH DAKOTA  *****

CITY           SKY/WX    TMP DP  RH WIND       PRES   REMARKS
SIOUX FALLS    CLEAR     41  36  82 SE3       30.09S
6HR MIN TEMP:  37; 6HR MAX TEMP:  44;

BROOKINGS      NOT AVBL
WATERTOWN      CLEAR     46  38  73 SE12      30.04F
6HR MIN TEMP:  39; 6HR MAX TEMP:  47;

HURON          CLEAR     50  36  58 SE14      29.98F
6HR MIN TEMP:  45; 6HR MAX TEMP:  50;

SISSETON         N/A     37  36  96 S9        30.05S
ABERDEEN       CLEAR     49  38  65 SE12      29.96F
6HR MIN TEMP:  42; 6HR MAX TEMP:  49;

MITCHELL       CLEAR     49  38  65 SE13      30.01F
PIERRE         CLEAR     52  40  63 SE13      29.87S
6HR MIN TEMP:  51; 6HR MAX TEMP:  57;

MOBRIDGE       CLEAR     53  40  61 SE10      29.83F
RAPID CITY     CLEAR     49  38  65 SE3       29.84S
6HR MIN TEMP:  48; 6HR MAX TEMP:  54;

$$

  *****  SOME WEATHER IN NEARBY STATES *****

CITY           SKY/WX    TMP DP  RH WIND       PRES   REMARKS
GLASGOW MT     CLEAR     46  37  71 E15       29.68S
6HR MIN TEMP:  45; 6HR MAX TEMP:  51;

GREAT FALLS MT MOCLDY    52  35  52 S8        29.67S
6HR MIN TEMP:  51; 6HR MAX TEMP:  63;

CHEYENNE WY    CLEAR     47  34  60 W12       30.05S
6HR MIN TEMP:  40; 6HR MAX TEMP:  49;

SCOTTSBLUFF NE CLEAR     46  41  82 E8        29.96S
6HR MIN TEMP:  44; 6HR MAX TEMP:  63;

OMAHA NE       CLEAR     40  38  93 CALM      30.12R
6HR MIN TEMP:  39; 6HR MAX TEMP:  46;

DES MOINES IA  CLEAR     43  39  86 CALM      30.12S
6HR MIN TEMP:  43; 6HR MAX TEMP:  50;

DAVENPORT IA   CLEAR     39  36  89 N3        30.14R
6HR MIN TEMP:  36; 6HR MAX TEMP:  45;

CHICAGO IL     PTCLDY    46  39  76 N12       30.09R
6HR MIN TEMP:  45; 6HR MAX TEMP:  51;

EAU CLAIRE WI  CLEAR     36  34  92 NE6       30.19R
6HR MIN TEMP:  32; 6HR MAX TEMP:  39;

LA CROSSE WI   CLEAR     38  35  89 CALM      30.18R
6HR MIN TEMP:  37; 6HR MAX TEMP:  43;

$$

  *****  SOME NATIONAL WEATHER *****

CITY           SKY/WX    TMP DP  RH WIND       PRES   REMARKS
LA GUARDIA NY  MOCLDY    56  47  71 E7        29.90R
6HR MIN TEMP:  55; 6HR MAX TEMP:  58;

RALEIGH NC     PTCLDY    52  48  86 SW3       29.93S
6HR MIN TEMP:  51; 6HR MAX TEMP:  58;

ATLANTA GA     CLEAR     52  48  86 CALM      30.02R
6HR MIN TEMP:  52; 6HR MAX TEMP:  58;

NEW ORLEANS LA PTCLDY    59  54  83 CALM      30.03R
6HR MIN TEMP:  59; 6HR MAX TEMP:  64;

OKLAHOMA CITY  PTCLDY    60  56  86 S5        30.07S
6HR MIN TEMP:  59; 6HR MAX TEMP:  66;

ALBUQUERQUE NM CLOUDY    53  48  83 N7        30.15S
6HR MIN TEMP:  52; 6HR MAX TEMP:  58;

SALT LAKE CITY CLOUDY    64  40  41 S14       29.87S
6HR MIN TEMP:  61; 6HR MAX TEMP:  65;




USA.gov is the U.S. government's official web portal to all federal, state and local government web resources and services.